GW5670 Weather Reports


Display with metric or nautical units.
time (UTC)temp
F
wind
direction
speed
MPH
gust
MPH
rain 1hr
in
rain 24hr
in
rain mn
in
humidity
%
barometer
mb
20260504050403 44 87 0.0 0.0 0.00 0.00 0.00 62 1019.1
20260504045900 41 85 1.0 2.0 0.00 0.00 0.00 69 1019.1
20260504045355 41 85 0.0 0.0 0.00 0.00 0.00 72 1019.2
20260504044852 41 87 0.0 2.0 0.00 0.00 0.00 72 1018.9
20260504044350 40 84 0.0 0.0 0.00 0.00 0.00 75 1018.8
20260504043847 40 88 0.0 0.0 0.00 0.00 0.00 76 1018.8
20260504043344 41 88 0.0 0.0 0.00 0.00 0.00 74 1018.9
20260504042841 41 69 2.0 2.0 0.00 0.00 0.00 75 1019.0
20260504042337 43 89 0.0 0.0 0.00 0.00 0.00 73 1018.7
20260504041834 42 86 0.0 0.0 0.00 0.00 0.00 65 1018.9
20260504041331 39 98 2.0 2.0 0.00 0.00 0.00 82 1018.8
20260504040827 39 81 1.0 2.0 0.00 0.00 0.00 80 1018.8
20260504040325 39 86 0.0 0.0 0.00 0.00 0.00 80 1018.7
20260504035820 40 90 0.0 0.0 0.00 0.00 0.00 79 1018.5
20260504035318 40 90 0.0 0.0 0.00 0.00 0.00 78 1018.6
20260504034815 40 86 0.0 0.0 0.00 0.00 0.00 79 1018.5
20260504034312 40 86 0.0 0.0 0.00 0.00 0.00 78 1018.6
20260504033809 41 86 0.0 0.0 0.00 0.00 0.00 77 1018.5
20260504033307 41 88 0.0 0.0 0.00 0.00 0.00 76 1018.6
20260504032803 41 88 1.0 2.0 0.00 0.00 0.00 76 1018.3
20260504032300 41 88 0.0 0.0 0.00 0.00 0.00 77 1018.3
20260504031757 41 73 2.0 2.0 0.00 0.00 0.00 76 1018.2
20260504031254 42 94 0.0 2.0 0.00 0.00 0.00 76 1018.1
20260504030750 41 97 0.0 2.0 0.00 0.00 0.00 75 1018.3
20260504030248 42 88 0.0 0.0 0.00 0.00 0.00 75 1018.5
20260504025744 43 90 0.0 0.0 0.00 0.00 0.00 72 1018.4
20260504025241 42 89 0.0 0.0 0.00 0.00 0.00 73 1018.3
20260504024738 43 92 0.0 0.0 0.00 0.00 0.00 72 1018.3
20260504024234 42 104 2.0 3.0 0.00 0.00 0.00 73 1018.4
20260504023731 42 89 0.0 0.0 0.00 0.00 0.00 74 1018.1
20260504023227 42 89 0.0 0.0 0.00 0.00 0.00 73 1018.2
20260504022723 43 89 0.0 0.0 0.00 0.00 0.00 72 1018.2
20260504022220 43 89 0.0 0.0 0.00 0.00 0.00 71 1018.3
20260504021718 44 90 0.0 0.0 0.00 0.00 0.00 70 1018.1
20260504021215 43 90 0.0 0.0 0.00 0.00 0.00 70 1018.1
20260504020711 44 90 0.0 0.0 0.00 0.00 0.00 68 1018.3
20260504020207 44 91 0.0 0.0 0.00 0.00 0.00 67 1018.2
20260504015704 44 92 0.0 0.0 0.00 0.00 0.00 67 1018.0
20260504015200 44 90 0.0 0.0 0.00 0.00 0.00 68 1018.0
20260504014655 45 90 0.0 0.0 0.00 0.00 0.00 65 1018.1
20260504014153 45 90 0.0 0.0 0.00 0.00 0.00 63 1018.0
20260504013651 46 90 0.0 0.0 0.00 0.00 0.00 62 1017.9
20260504013147 46 90 0.0 0.0 0.00 0.00 0.00 64 1018.0
20260504012644 47 90 0.0 0.0 0.00 0.00 0.00 60 1018.0
20260504012142 47 90 0.0 0.0 0.00 0.00 0.00 61 1017.9
20260504011639 46 83 0.0 0.0 0.00 0.00 0.00 63 1017.8
20260504011136 47 84 0.0 2.0 0.00 0.00 0.00 61 1017.7
20260504010631 48 87 0.0 0.0 0.00 0.00 0.00 58 1017.8
20260504010127 48 91 2.0 2.0 0.00 0.00 0.00 57 1017.5
20260504005625 48 90 1.0 2.0 0.00 0.00 0.00 61 1017.7
20260504005122 49 89 0.0 0.0 0.00 0.00 0.00 59 1017.5
20260504004620 52 77 2.0 2.0 0.00 0.00 0.00 53 1017.5
20260504004117 53 60 2.0 3.0 0.00 0.00 0.00 43 1017.6
20260504003613 54 78 1.0 2.0 0.00 0.00 0.00 43 1017.5
20260504003109 53 84 1.0 2.0 0.00 0.00 0.00 43 1017.4
20260504002606 51 79 2.0 2.0 0.00 0.00 0.00 47 1017.5
20260504002104 52 84 0.0 0.0 0.00 0.00 0.00 50 1017.5
20260504001601 53 86 0.0 0.0 0.00 0.00 0.00 46 1017.4
20260504001057 53 93 0.0 0.0 0.00 0.00 0.00 47 1017.3
20260504000554 54 93 1.0 2.0 0.00 0.00 0.00 46 1017.2
20260504000052 54 89 1.0 2.0 0.00 0.00 0.00 45 1017.3
20260503235550 55 88 0.0 0.0 0.00 0.00 0.00 44 1017.4
20260503235047 55 85 0.0 0.0 0.00 0.00 0.00 42 1017.1
20260503234544 56 85 0.0 2.0 0.00 0.00 0.00 41 1017.2
20260503234043 56 115 2.0 3.0 0.00 0.00 0.00 40 1016.9
20260503233538 57 72 2.0 3.0 0.00 0.00 0.00 38 1017.0
20260503233034 57 65 2.0 3.0 0.00 0.00 0.00 37 1016.9
20260503232532 58 87 0.0 2.0 0.00 0.00 0.00 38 1017.0
20260503232029 58 78 3.0 6.0 0.00 0.00 0.00 37 1016.8
20260503231527 58 58 5.0 5.0 0.00 0.00 0.00 36 1016.8
20260503231023 59 95 5.0 6.0 0.00 0.00 0.00 36 1016.5
20260503230520 59 66 4.0 6.0 0.00 0.00 0.00 35 1016.6
20260503230018 59 108 3.0 3.0 0.00 0.00 0.00 35 1016.7
20260503225514 60 106 14.0 16.0 0.00 0.00 0.00 34 1016.6
20260503225009 60 86 0.0 0.0 0.00 0.00 0.00 35 1016.7
20260503224507 60 75 9.0 11.0 0.00 0.00 0.00 35 1016.7
20260503224005 60 116 5.0 13.0 0.00 0.00 0.00 35 1016.8
20260503223503 60 88 0.0 2.0 0.00 0.00 0.00 36 1016.6
20260503222958 60 87 3.0 5.0 0.00 0.00 0.00 34 1016.9
20260503222457 60 92 4.0 5.0 0.00 0.00 0.00 34 1016.9
20260503221954 60 86 4.0 8.0 0.00 0.00 0.00 36 1016.8
20260503221452 60 75 2.0 2.0 0.00 0.00 0.00 36 1016.8
20260503220949 60 107 17.0 19.0 0.00 0.00 0.00 34 1016.9
20260503220445 60 88 4.0 6.0 0.00 0.00 0.00 35 1016.9
20260503215942 60 108 5.0 6.0 0.00 0.00 0.00 34 1016.9
20260503215439 60 84 8.0 13.0 0.00 0.00 0.00 34 1016.7
20260503214937 60 50 8.0 10.0 0.00 0.00 0.00 34 1017.0
20260503214434 60 85 4.0 5.0 0.00 0.00 0.00 34 1016.9
20260503213931 60 94 1.0 2.0 0.00 0.00 0.00 35 1016.8
20260503213430 60 65 8.0 11.0 0.00 0.00 0.00 34 1016.9
20260503212925 60 97 4.0 6.0 0.00 0.00 0.00 34 1017.0
20260503212423 60 103 6.0 8.0 0.00 0.00 0.00 33 1016.9
20260503211920 60 94 6.0 10.0 0.00 0.00 0.00 33 1016.8
20260503211417 59 92 7.0 8.0 0.00 0.00 0.00 34 1016.9
20260503210912 59 75 3.0 5.0 0.00 0.00 0.00 34 1016.9
20260503210410 59 59 18.0 21.0 0.00 0.00 0.00 34 1017.0
20260503205904 60 74 9.0 11.0 0.00 0.00 0.00 33 1017.0
20260503205402 60 111 11.0 14.0 0.00 0.00 0.00 34 1016.8
20260503204858 60 89 8.0 11.0 0.00 0.00 0.00 34 1016.9
20260503204355 59 102 7.0 8.0 0.00 0.00 0.00 34 1016.9
20260503203852 59 97 20.0 24.0 0.00 0.00 0.00 33 1017.0
20260503203350 59 92 2.0 3.0 0.00 0.00 0.00 35 1016.9
20260503202846 59 75 12.0 14.0 0.00 0.00 0.00 34 1017.1
20260503202345 59 103 11.0 14.0 0.00 0.00 0.00 33 1017.1
20260503201843 59 106 5.0 6.0 0.00 0.00 0.00 36 1017.2
20260503201339 59 87 3.0 5.0 0.00 0.00 0.00 35 1017.2
20260503200837 59 104 11.0 19.0 0.00 0.00 0.00 34 1017.2
20260503200332 59 79 8.0 11.0 0.00 0.00 0.00 34 1017.4
20260503195830 60 79 9.0 13.0 0.00 0.00 0.00 33 1017.4
20260503195326 59 75 8.0 10.0 0.00 0.00 0.00 34 1017.5
20260503194824 59 77 6.0 10.0 0.00 0.00 0.00 33 1017.4
20260503194319 58 39 6.0 10.0 0.00 0.00 0.00 35 1017.7
20260503193816 58 19 4.0 10.0 0.00 0.00 0.00 39 1017.8
20260503193312 57 82 5.0 6.0 0.00 0.00 0.00 37 1017.7
20260503192808 57 80 7.0 8.0 0.00 0.00 0.00 35 1017.8
20260503192305 58 98 9.0 11.0 0.00 0.00 0.00 37 1017.8
20260503191800 56 88 12.0 14.0 0.00 0.00 0.00 37 1017.9
20260503191257 57 132 4.0 5.0 0.00 0.00 0.00 36 1018.1
20260503190754 57 33 10.0 13.0 0.00 0.00 0.00 38 1018.0
20260503190251 56 83 15.0 19.0 0.00 0.00 0.00 38 1018.1
20260503185748 56 92 6.0 6.0 0.00 0.00 0.00 39 1018.0
20260503185243 57 84 11.0 14.0 0.00 0.00 0.00 38 1018.2
20260503184738 58 124 7.0 10.0 0.00 0.00 0.00 38 1018.3
20260503184235 57 66 16.0 26.0 0.00 0.00 0.00 37 1018.3
20260503183731 56 358 7.0 10.0 0.00 0.00 0.00 40 1018.3
20260503183229 56 59 5.0 8.0 0.00 0.00 0.00 40 1018.5
20260503182726 55 88 3.0 5.0 0.00 0.00 0.00 43 1018.5
20260503182225 55 119 4.0 6.0 0.00 0.00 0.00 41 1018.6
20260503181721 55 97 11.0 19.0 0.00 0.00 0.00 41 1018.7
20260503181218 55 65 2.0 3.0 0.00 0.00 0.00 41 1018.7
20260503180714 55 44 3.0 6.0 0.00 0.00 0.00 42 1018.8
20260503180213 55 83 3.0 5.0 0.00 0.00 0.00 41 1018.6
20260503175710 54 90 14.0 16.0 0.00 0.00 0.00 40 1018.7
20260503175207 56 62 6.0 10.0 0.00 0.00 0.00 41 1018.6
20260503174703 55 63 4.0 5.0 0.00 0.00 0.00 41 1018.7
20260503174201 53 65 11.0 14.0 0.00 0.00 0.00 40 1018.9
20260503173656 54 106 9.0 11.0 0.00 0.00 0.00 41 1018.8
20260503173152 54 83 11.0 13.0 0.00 0.00 0.00 42 1018.8
20260503172649 54 101 8.0 10.0 0.00 0.00 0.00 40 1018.9
20260503172147 54 39 11.0 13.0 0.00 0.00 0.00 41 1018.9
20260503171643 54 92 14.0 21.0 0.00 0.00 0.00 42 1018.9
20260503171140 53 113 6.0 13.0 0.00 0.00 0.00 42 1019.0
20260503170637 53 79 15.0 18.0 0.00 0.00 0.00 41 1019.0
20260503170134 54 81 12.0 14.0 0.00 0.00 0.00 41 1019.1
20260503150526 48 282 5.0 5.0 0.00 0.00 0.00 47 1020.0
20260503131419 45 90 10.0 13.0 0.00 0.00 0.00 54 1020.0
20260503130915 44 98 6.0 8.0 0.00 0.00 0.00 56 1019.9
20260503130413 44 77 21.0 26.0 0.00 0.00 0.00 56 1020.0
20260503110817 39 99 6.0 6.0 0.00 0.00 0.00 70 1019.0
20260503110314 39 78 5.0 6.0 0.00 0.00 0.00 71 1019.0
20260503100240 37 89 0.0 0.0 0.00 0.00 0.00 74 1018.1
20260503090159 38 97 0.0 2.0 0.00 0.00 0.00 74 1017.6
20260503081636 39 92 3.0 3.0 0.00 0.00 0.00 75 1017.3
20260503081132 39 103 1.0 2.0 0.00 0.00 0.00 75 1017.4
20260503080628 39 130 4.0 6.0 0.00 0.00 0.00 76 1017.5
20260503080125 39 96 2.0 5.0 0.00 0.00 0.00 75 1017.3